| time (UTC) | temp F | wind direction | speed MPH | gust MPH | rain 1hr in | rain 24hr in | rain mn in | humidity % | barometer mb |
| 20260903105201 | 76 | 119 | 1.0 | 2.0 | 0.00 | 0.00 | 0.00 | 95 | 1014.7 |
| 20260903104700 | 76 | 117 | 1.0 | 1.0 | 0.00 | 0.00 | 0.00 | 95 | 1014.7 |
| 20260903104200 | 76 | 49 | 1.0 | 2.0 | 0.00 | 0.00 | 0.00 | 95 | 1014.7 |
| 20260903103700 | 76 | 140 | 2.0 | 3.0 | 0.00 | 0.00 | 0.00 | 95 | 1014.7 |
| 20260903103200 | 77 | 127 | 1.0 | 2.0 | 0.00 | 0.00 | 0.00 | 95 | 1014.6 |
| 20260903102700 | 77 | 156 | 2.0 | 3.0 | 0.00 | 0.00 | 0.00 | 95 | 1014.5 |
| 20260903102201 | 77 | 64 | 1.0 | 1.0 | 0.00 | 0.00 | 0.00 | 95 | 1014.4 |
| 20260903101700 | 77 | 34 | 2.0 | 2.0 | 0.00 | 0.00 | 0.00 | 95 | 1014.4 |
| 20260903101200 | 76 | 113 | 1.0 | 1.0 | 0.00 | 0.00 | 0.00 | 95 | 1014.3 |
| 20260903100700 | 76 | 52 | 1.0 | 1.0 | 0.00 | 0.00 | 0.00 | 95 | 1014.3 |
| 20260903100200 | 76 | 292 | 1.0 | 2.0 | 0.00 | 0.00 | 0.00 | 95 | 1014.4 |
| 20260903095701 | 76 | 171 | 0.0 | 1.0 | 0.00 | 0.00 | 0.00 | 95 | 1014.4 |
| 20260903095201 | 76 | 333 | 1.0 | 2.0 | 0.00 | 0.00 | 0.00 | 95 | 1014.4 |
| 20260903094701 | 76 | 102 | 1.0 | 1.0 | 0.00 | 0.00 | 0.00 | 95 | 1014.5 |
| 20260903094201 | 76 | 20 | 1.0 | 2.0 | 0.00 | 0.00 | 0.00 | 95 | 1014.5 |
| 20260903093700 | 76 | 212 | 2.0 | 3.0 | 0.00 | 0.00 | 0.00 | 95 | 1014.4 |
| 20260903093200 | 76 | 202 | 1.0 | 1.0 | 0.00 | 0.00 | 0.00 | 95 | 1014.4 |
| 20260903092700 | 76 | 225 | 1.0 | 1.0 | 0.00 | 0.00 | 0.00 | 95 | 1014.4 |
| 20260903092200 | 77 | 227 | 1.0 | 1.0 | 0.00 | 0.00 | 0.00 | 95 | 1014.4 |
| 20260903091700 | 77 | 262 | 1.0 | 3.0 | 0.00 | 0.00 | 0.00 | 95 | 1014.4 |
| 20260903091200 | 77 | 9 | 1.0 | 1.0 | 0.00 | 0.00 | 0.00 | 95 | 1014.4 |
| 20260903090700 | 77 | 5 | 1.0 | 1.0 | 0.00 | 0.00 | 0.00 | 95 | 1014.4 |
| 20260903090200 | 77 | 73 | 1.0 | 1.0 | 0.00 | 0.00 | 0.00 | 95 | 1014.5 |
| 20260903085701 | 77 | 86 | 2.0 | 2.0 | 0.00 | 0.00 | 0.00 | 95 | 1014.5 |
| 20260903085200 | 77 | 122 | 1.0 | 1.0 | 0.00 | 0.00 | 0.00 | 95 | 1014.5 |
| 20260903084700 | 77 | 146 | 1.0 | 3.0 | 0.00 | 0.00 | 0.00 | 95 | 1014.5 |
| 20260903084201 | 77 | 95 | 1.0 | 1.0 | 0.00 | 0.00 | 0.00 | 95 | 1014.4 |
| 20260903083700 | 77 | 124 | 1.0 | 2.0 | 0.00 | 0.00 | 0.00 | 95 | 1014.4 |
| 20260903083201 | 77 | 51 | 1.0 | 2.0 | 0.00 | 0.00 | 0.00 | 95 | 1014.4 |
| 20260903082701 | 77 | 89 | 1.0 | 1.0 | 0.00 | 0.00 | 0.00 | 95 | 1014.4 |
| 20260903082201 | 77 | 83 | 1.0 | 2.0 | 0.00 | 0.00 | 0.00 | 95 | 1014.3 |
| 20260903081701 | 76 | 61 | 2.0 | 3.0 | 0.00 | 0.00 | 0.00 | 95 | 1014.2 |
| 20260903081201 | 76 | 145 | 2.0 | 3.0 | 0.00 | 0.00 | 0.00 | 95 | 1014.1 |
| 20260903080700 | 76 | 262 | 2.0 | 2.0 | 0.00 | 0.00 | 0.00 | 95 | 1014.2 |
| 20260903080200 | 76 | 59 | 2.0 | 3.0 | 0.00 | 0.00 | 0.00 | 95 | 1014.3 |
| 20260903075700 | 76 | 112 | 1.0 | 1.0 | 0.00 | 0.00 | 0.00 | 95 | 1014.2 |
| 20260903075201 | 76 | 100 | 1.0 | 1.0 | 0.00 | 0.00 | 0.00 | 95 | 1014.2 |
| 20260903074701 | 76 | 241 | 1.0 | 1.0 | 0.00 | 0.00 | 0.00 | 95 | 1014.3 |
| 20260903074200 | 76 | 34 | 1.0 | 1.0 | 0.00 | 0.00 | 0.00 | 95 | 1014.2 |
| 20260903073700 | 76 | 40 | 2.0 | 2.0 | 0.00 | 0.00 | 0.00 | 95 | 1014.2 |
| 20260903073201 | 77 | 65 | 2.0 | 2.0 | 0.00 | 0.00 | 0.00 | 95 | 1014.3 |
| 20260903072700 | 77 | 79 | 1.0 | 2.0 | 0.00 | 0.00 | 0.00 | 95 | 1014.3 |
| 20260903072201 | 76 | 52 | 1.0 | 2.0 | 0.00 | 0.00 | 0.00 | 95 | 1014.3 |
| 20260903071701 | 76 | 87 | 1.0 | 1.0 | 0.00 | 0.00 | 0.00 | 95 | 1014.3 |
| 20260903071201 | 76 | 122 | 2.0 | 3.0 | 0.00 | 0.00 | 0.00 | 95 | 1014.3 |
| 20260903070700 | 76 | 153 | 2.0 | 2.0 | 0.00 | 0.00 | 0.00 | 95 | 1014.3 |
| 20260903070200 | 76 | 151 | 3.0 | 4.0 | 0.00 | 0.00 | 0.00 | 95 | 1014.3 |
| 20260903065700 | 76 | 163 | 2.0 | 3.0 | 0.00 | 0.00 | 0.00 | 95 | 1014.2 |
| 20260903065200 | 76 | 159 | 2.0 | 2.0 | 0.00 | 0.00 | 0.00 | 95 | 1014.3 |
| 20260903064701 | 76 | 173 | 2.0 | 2.0 | 0.00 | 0.00 | 0.00 | 95 | 1014.3 |
| 20260903064200 | 76 | 166 | 3.0 | 4.0 | 0.00 | 0.00 | 0.00 | 95 | 1014.3 |
| 20260903063700 | 76 | 162 | 4.0 | 4.0 | 0.00 | 0.00 | 0.00 | 95 | 1014.2 |
| 20260903063200 | 76 | 185 | 3.0 | 4.0 | 0.00 | 0.00 | 0.00 | 95 | 1014.1 |
| 20260903062700 | 76 | 182 | 2.0 | 3.0 | 0.00 | 0.00 | 0.00 | 95 | 1014.1 |
| 20260903062200 | 76 | 158 | 2.0 | 4.0 | 0.00 | 0.00 | 0.00 | 95 | 1014.2 |
| 20260903061701 | 76 | 160 | 2.0 | 2.0 | 0.00 | 0.00 | 0.00 | 95 | 1014.2 |
| 20260903061201 | 76 | 166 | 2.0 | 3.0 | 0.00 | 0.00 | 0.00 | 95 | 1014.2 |
| 20260903060701 | 76 | 176 | 1.0 | 2.0 | 0.00 | 0.00 | 0.00 | 95 | 1014.3 |
| 20260903060201 | 76 | 175 | 2.0 | 3.0 | 0.00 | 0.00 | 0.00 | 95 | 1014.4 |
| 20260903055701 | 76 | 157 | 2.0 | 3.0 | 0.00 | 0.00 | 0.00 | 95 | 1014.4 |
| 20260903055201 | 76 | 170 | 4.0 | 4.0 | 0.00 | 0.00 | 0.00 | 95 | 1014.4 |
| 20260903054700 | 76 | 174 | 4.0 | 5.0 | 0.00 | 0.00 | 0.00 | 95 | 1014.4 |
| 20260903054200 | 76 | 171 | 3.0 | 4.0 | 0.00 | 0.00 | 0.00 | 95 | 1014.4 |
| 20260903053701 | 76 | 128 | 2.0 | 2.0 | 0.00 | 0.00 | 0.00 | 95 | 1014.4 |
| 20260903052714 | 76 | 150 | 2.0 | 4.0 | 0.00 | 0.00 | 0.00 | 95 | 1014.2 |
| 20260903052200 | 76 | 154 | 2.0 | 3.0 | 0.00 | 0.00 | 0.00 | 95 | 1014.2 |
| 20260903051700 | 76 | 143 | 1.0 | 1.0 | 0.00 | 0.00 | 0.00 | 95 | 1014.1 |
| 20260903051200 | 76 | 167 | 2.0 | 2.0 | 0.00 | 0.00 | 0.00 | 95 | 1014.0 |
| 20260903050700 | 75 | 151 | 1.0 | 2.0 | 0.00 | 0.00 | 0.00 | 95 | 1014.0 |
| 20260903050200 | 75 | 145 | 2.0 | 3.0 | 0.00 | 0.00 | 0.00 | 95 | 1014.0 |
| 20260903045701 | 75 | 158 | 2.0 | 3.0 | 0.00 | 0.00 | 0.46 | 95 | 1014.0 |
| 20260903045200 | 75 | 128 | 1.0 | 2.0 | 0.00 | 0.00 | 0.46 | 95 | 1014.0 |
| 20260903044701 | 75 | 159 | 1.0 | 2.0 | 0.00 | 0.00 | 0.46 | 95 | 1014.1 |
| 20260903044201 | 75 | 144 | 2.0 | 3.0 | 0.00 | 0.00 | 0.46 | 95 | 1014.2 |
| 20260903043701 | 75 | 150 | 1.0 | 1.0 | 0.00 | 0.00 | 0.46 | 95 | 1014.3 |
| 20260903043200 | 75 | 102 | 1.0 | 2.0 | 0.00 | 0.00 | 0.46 | 95 | 1014.3 |
| 20260903042700 | 75 | 133 | 1.0 | 1.0 | 0.00 | 0.00 | 0.46 | 95 | 1014.3 |
| 20260903042200 | 75 | 138 | 2.0 | 3.0 | 0.01 | 0.00 | 0.46 | 95 | 1014.4 |
| 20260903041700 | 75 | 143 | 1.0 | 2.0 | 0.01 | 0.00 | 0.46 | 95 | 1014.4 |
| 20260903041200 | 75 | 178 | 2.0 | 3.0 | 0.01 | 0.00 | 0.46 | 95 | 1014.5 |
| 20260903040700 | 75 | 151 | 2.0 | 2.0 | 0.02 | 0.00 | 0.46 | 95 | 1014.5 |
| 20260903040200 | 75 | 95 | 2.0 | 2.0 | 0.02 | 0.00 | 0.46 | 94 | 1014.6 |
| 20260903035702 | 74 | 152 | 1.0 | 2.0 | 0.03 | 0.00 | 0.49 | 94 | 1014.6 |
| 20260903035200 | 74 | 149 | 1.0 | 1.0 | 0.03 | 0.00 | 0.49 | 94 | 1014.7 |
| 20260903034700 | 74 | 241 | 1.0 | 2.0 | 0.03 | 0.00 | 0.49 | 94 | 1014.8 |
| 20260903034200 | 74 | 175 | 2.0 | 3.0 | 0.04 | 0.00 | 0.49 | 94 | 1014.8 |
| 20260903033702 | 74 | 170 | 2.0 | 3.0 | 0.04 | 0.00 | 0.49 | 94 | 1014.8 |
| 20260903033200 | 75 | 182 | 2.0 | 2.0 | 0.04 | 0.00 | 0.48 | 94 | 1014.8 |
| 20260903032700 | 74 | 170 | 1.0 | 2.0 | 0.04 | 0.00 | 0.48 | 94 | 1014.9 |
| 20260903032203 | 75 | 118 | 1.0 | 1.0 | 0.04 | 0.00 | 0.47 | 94 | 1015.0 |
| 20260903031700 | 75 | 177 | 1.0 | 2.0 | 0.04 | 0.00 | 0.47 | 94 | 1015.0 |
| 20260903031203 | 75 | 191 | 0.0 | 1.0 | 0.05 | 0.00 | 0.47 | 94 | 1015.0 |
| 20260903030700 | 75 | 91 | 0.0 | 1.0 | 0.05 | 0.00 | 0.47 | 94 | 1015.1 |
| 20260903030200 | 75 | 91 | 1.0 | 1.0 | 0.05 | 0.00 | 0.46 | 94 | 1015.1 |
| 20260903025700 | 75 | 101 | 1.0 | 1.0 | 0.05 | 0.00 | 0.48 | 94 | 1015.2 |
| 20260903025200 | 75 | 162 | 0.0 | 1.0 | 0.04 | 0.00 | 0.48 | 94 | 1015.2 |
| 20260903024700 | 75 | 196 | 1.0 | 2.0 | 0.04 | 0.00 | 0.47 | 94 | 1015.1 |
| 20260903024202 | 75 | 360 | 0.0 | 0.0 | 0.04 | 0.00 | 0.47 | 94 | 1015.0 |
| 20260903023701 | 75 | 104 | 1.0 | 1.0 | 0.05 | 0.00 | 0.46 | 94 | 1014.9 |
| 20260903023200 | 75 | 95 | 1.0 | 1.0 | 0.06 | 0.00 | 0.45 | 94 | 1014.9 |
| 20260903022700 | 75 | 360 | 0.0 | 0.0 | 0.06 | 0.00 | 0.45 | 94 | 1015.0 |
| 20260903022201 | 75 | 134 | 1.0 | 2.0 | 0.06 | 0.00 | 0.44 | 94 | 1014.9 |
| 20260903021700 | 75 | 119 | 0.0 | 1.0 | 0.07 | 0.00 | 0.44 | 94 | 1014.8 |
| 20260903021200 | 75 | 1 | 0.0 | 0.0 | 0.07 | 0.00 | 0.44 | 94 | 1014.8 |
| 20260903020701 | 75 | 196 | 1.0 | 2.0 | 0.07 | 0.00 | 0.43 | 94 | 1014.7 |
| 20260903020201 | 75 | 182 | 1.0 | 2.0 | 0.06 | 0.00 | 0.42 | 94 | 1014.7 |
| 20260903015700 | 75 | 360 | 0.0 | 0.0 | 0.06 | 0.00 | 0.44 | 94 | 1014.7 |
| 20260903015200 | 75 | 360 | 0.0 | 0.0 | 0.06 | 0.00 | 0.43 | 94 | 1014.6 |
| 20260903014701 | 74 | 360 | 0.0 | 0.0 | 0.06 | 0.00 | 0.43 | 94 | 1014.5 |
| 20260903014201 | 74 | 339 | 1.0 | 2.0 | 0.04 | 0.00 | 0.43 | 94 | 1014.5 |
| 20260903013700 | 74 | 124 | 1.0 | 1.0 | 0.04 | 0.00 | 0.43 | 94 | 1014.5 |
| 20260903013200 | 74 | 37 | 0.0 | 1.0 | 0.05 | 0.00 | 0.41 | 94 | 1014.4 |
| 20260903012701 | 74 | 4 | 1.0 | 1.0 | 0.09 | 0.00 | 0.41 | 93 | 1014.4 |
| 20260903012200 | 74 | 80 | 1.0 | 1.0 | 0.09 | 0.00 | 0.40 | 93 | 1014.4 |
| 20260903011701 | 74 | 360 | 0.0 | 0.0 | 0.19 | 0.00 | 0.43 | 93 | 1014.3 |
| 20260903011201 | 74 | 360 | 0.0 | 0.0 | 0.22 | 0.00 | 0.42 | 93 | 1014.3 |
| 20260903010700 | 74 | 247 | 1.0 | 2.0 | 0.22 | 0.00 | 0.41 | 93 | 1014.2 |
| 20260903010201 | 74 | 293 | 0.0 | 1.0 | 0.23 | 0.00 | 0.40 | 93 | 1014.2 |
| 20260903005700 | 74 | 202 | 1.0 | 2.0 | 0.25 | 0.00 | 0.41 | 93 | 1014.2 |
| 20260903005200 | 74 | 360 | 0.0 | 0.0 | 0.25 | 0.00 | 0.41 | 93 | 1014.2 |
| 20260903004700 | 74 | 102 | 1.0 | 2.0 | 0.29 | 0.00 | 0.41 | 93 | 1014.3 |
| 20260903004200 | 74 | 40 | 1.0 | 3.0 | 0.27 | 0.00 | 0.41 | 93 | 1014.5 |
| 20260903003700 | 74 | 81 | 1.0 | 2.0 | 0.26 | 0.00 | 0.41 | 93 | 1014.6 |
| 20260903003202 | 74 | 83 | 2.0 | 3.0 | 0.26 | 0.00 | 0.38 | 93 | 1014.6 |
| 20260903002701 | 74 | 77 | 4.0 | 6.0 | 0.26 | 0.00 | 0.38 | 92 | 1014.7 |
| 20260903002200 | 74 | 118 | 2.0 | 3.0 | 0.26 | 0.00 | 0.36 | 92 | 1014.8 |
| 20260903001700 | 74 | 95 | 3.0 | 4.0 | 0.25 | 0.00 | 0.37 | 91 | 1014.9 |
| 20260903001200 | 75 | 95 | 3.0 | 3.0 | 0.20 | 0.00 | 0.32 | 91 | 1014.9 |
| 20260903000700 | 75 | 150 | 4.0 | 6.0 | 0.08 | 0.00 | 0.24 | 90 | 1015.0 |
| 20260903000200 | 76 | 145 | 3.0 | 5.0 | 0.07 | 0.00 | 0.19 | 90 | 1015.0 |
| 20260902235700 | 77 | 171 | 4.0 | 5.0 | 0.07 | 0.00 | 0.19 | 89 | 1015.0 |
| 20260902235200 | 78 | 168 | 4.0 | 5.0 | 0.06 | 0.00 | 0.18 | 87 | 1015.0 |
| 20260902234701 | 80 | 179 | 6.0 | 7.0 | 0.04 | 0.00 | 0.17 | 84 | 1014.9 |
| 20260902234200 | 82 | 185 | 7.0 | 11.0 | 0.00 | 0.00 | 0.14 | 77 | 1015.2 |
| 20260902233700 | 82 | 207 | 5.0 | 8.0 | 0.00 | 0.00 | 0.12 | 77 | 1015.0 |
| 20260902233200 | 83 | 193 | 5.0 | 7.0 | 0.00 | 0.00 | 0.12 | 79 | 1015.0 |
| 20260902232700 | 83 | 204 | 2.0 | 5.0 | 0.00 | 0.00 | 0.12 | 77 | 1014.9 |
| 20260902232200 | 83 | 154 | 2.0 | 4.0 | 0.00 | 0.00 | 0.12 | 77 | 1014.5 |
| 20260902231700 | 83 | 123 | 1.0 | 3.0 | 0.00 | 0.00 | 0.12 | 77 | 1014.3 |
| 20260902231159 | 83 | 150 | 2.0 | 3.0 | 0.00 | 0.00 | 0.12 | 77 | 1014.3 |
| 20260902230700 | 83 | 102 | 3.0 | 5.0 | 0.00 | 0.00 | 0.12 | 77 | 1014.2 |
| 20260902230200 | 83 | 123 | 4.0 | 7.0 | 0.00 | 0.00 | 0.12 | 77 | 1014.1 |
| 20260902225700 | 83 | 131 | 4.0 | 7.0 | 0.00 | 0.00 | 0.12 | 77 | 1014.1 |
| 20260902225202 | 83 | 111 | 2.0 | 4.0 | 0.00 | 0.00 | 0.12 | 77 | 1014.1 |
| 20260902224701 | 83 | 157 | 3.0 | 5.0 | 0.00 | 0.00 | 0.12 | 77 | 1014.1 |
| 20260902224201 | 83 | 102 | 2.0 | 5.0 | 0.00 | 0.00 | 0.12 | 77 | 1014.0 |
| 20260902223701 | 83 | 130 | 3.0 | 3.0 | 0.00 | 0.00 | 0.12 | 77 | 1013.9 |
| 20260902223200 | 83 | 158 | 3.0 | 4.0 | 0.00 | 0.00 | 0.12 | 77 | 1013.9 |
| 20260902222701 | 83 | 176 | 2.0 | 5.0 | 0.00 | 0.00 | 0.12 | 77 | 1013.9 |
| 20260902222200 | 83 | 155 | 4.0 | 6.0 | 0.00 | 0.00 | 0.12 | 76 | 1013.8 |
| 20260902221700 | 83 | 123 | 3.0 | 4.0 | 0.00 | 0.00 | 0.12 | 76 | 1013.8 |
| 20260902221201 | 83 | 153 | 2.0 | 4.0 | 0.00 | 0.00 | 0.12 | 76 | 1013.8 |
| 20260902220700 | 83 | 165 | 3.0 | 5.0 | 0.00 | 0.00 | 0.12 | 76 | 1013.9 |
| 20260902220200 | 83 | 150 | 3.0 | 4.0 | 0.00 | 0.00 | 0.12 | 76 | 1013.9 |
| 20260902215700 | 83 | 166 | 4.0 | 5.0 | 0.00 | 0.00 | 0.12 | 75 | 1013.9 |
| 20260902215200 | 83 | 174 | 7.0 | 10.0 | 0.00 | 0.00 | 0.12 | 75 | 1013.9 |
| 20260902214228 | 83 | 117 | 4.0 | 6.0 | 0.00 | 0.00 | 0.12 | 75 | 1014.0 |
| 20260902213700 | 83 | 132 | 2.0 | 5.0 | 0.00 | 0.00 | 0.12 | 76 | 1014.0 |
| 20260902213200 | 83 | 172 | 4.0 | 5.0 | 0.00 | 0.00 | 0.12 | 75 | 1014.0 |
| 20260902212700 | 83 | 109 | 4.0 | 9.0 | 0.00 | 0.00 | 0.12 | 75 | 1014.0 |
| 20260902212201 | 83 | 130 | 6.0 | 9.0 | 0.00 | 0.00 | 0.12 | 76 | 1014.0 |
| 20260902211700 | 83 | 160 | 4.0 | 5.0 | 0.00 | 0.00 | 0.12 | 76 | 1014.0 |
| 20260902210700 | 83 | 97 | 9.0 | 14.0 | 0.00 | 0.00 | 0.12 | 76 | 1014.2 |
| 20260902210200 | 83 | 103 | 4.0 | 9.0 | 0.00 | 0.00 | 0.12 | 76 | 1014.3 |
| 20260902205702 | 83 | 150 | 4.0 | 10.0 | 0.00 | 0.00 | 0.12 | 76 | 1014.4 |
| 20260902205201 | 83 | 92 | 5.0 | 10.0 | 0.00 | 0.00 | 0.12 | 76 | 1014.5 |
| 20260902204701 | 83 | 159 | 6.0 | 8.0 | 0.00 | 0.00 | 0.12 | 76 | 1014.8 |
| 20260902204201 | 83 | 164 | 4.0 | 5.0 | 0.00 | 0.00 | 0.12 | 76 | 1014.8 |
| 20260902203700 | 83 | 169 | 4.0 | 6.0 | 0.00 | 0.00 | 0.12 | 76 | 1014.9 |
| 20260902203201 | 83 | 112 | 4.0 | 7.0 | 0.00 | 0.00 | 0.12 | 75 | 1015.0 |
| 20260902202700 | 83 | 182 | 6.0 | 8.0 | 0.00 | 0.00 | 0.12 | 75 | 1015.2 |
| 20260902202200 | 83 | 156 | 5.0 | 6.0 | 0.00 | 0.00 | 0.12 | 74 | 1015.2 |
| 20260902201702 | 83 | 104 | 5.0 | 9.0 | 0.00 | 0.00 | 0.12 | 74 | 1015.3 |
| 20260902201200 | 83 | 156 | 2.0 | 4.0 | 0.00 | 0.00 | 0.12 | 74 | 1015.2 |
| 20260902200700 | 83 | 165 | 3.0 | 4.0 | 0.00 | 0.00 | 0.12 | 74 | 1015.2 |
| 20260902200200 | 83 | 165 | 4.0 | 6.0 | 0.00 | 0.00 | 0.12 | 74 | 1015.2 |
| 20260902195700 | 83 | 158 | 4.0 | 5.0 | 0.00 | 0.00 | 0.12 | 74 | 1015.3 |
| 20260902195201 | 83 | 146 | 3.0 | 4.0 | 0.00 | 0.00 | 0.12 | 75 | 1015.3 |
| 20260902194701 | 83 | 137 | 3.0 | 4.0 | 0.00 | 0.00 | 0.12 | 74 | 1015.2 |
| 20260902194200 | 82 | 191 | 4.0 | 5.0 | 0.00 | 0.00 | 0.12 | 75 | 1015.2 |
| 20260902193700 | 82 | 151 | 5.0 | 7.0 | 0.00 | 0.00 | 0.12 | 75 | 1015.2 |
| 20260902193201 | 82 | 161 | 7.0 | 10.0 | 0.00 | 0.00 | 0.12 | 77 | 1015.3 |
| 20260902192700 | 82 | 151 | 3.0 | 5.0 | 0.00 | 0.00 | 0.12 | 77 | 1015.2 |
| 20260902192200 | 82 | 152 | 4.0 | 6.0 | 0.00 | 0.00 | 0.12 | 77 | 1015.3 |
| 20260902191700 | 82 | 161 | 4.0 | 8.0 | 0.00 | 0.00 | 0.12 | 78 | 1015.2 |
| 20260902191200 | 82 | 164 | 4.0 | 6.0 | 0.00 | 0.00 | 0.12 | 78 | 1015.4 |
| 20260902190700 | 82 | 142 | 6.0 | 7.0 | 0.00 | 0.00 | 0.12 | 77 | 1015.4 |
| 20260902190201 | 81 | 159 | 6.0 | 9.0 | 0.00 | 0.00 | 0.12 | 77 | 1015.4 |
| 20260902185701 | 81 | 192 | 5.0 | 7.0 | 0.00 | 0.00 | 0.12 | 79 | 1015.2 |
| 20260902185200 | 81 | 183 | 6.0 | 9.0 | 0.00 | 0.00 | 0.12 | 80 | 1015.2 |
| 20260902183200 | 80 | 170 | 7.0 | 9.0 | 0.00 | 0.00 | 0.12 | 81 | 1015.4 |
| 20260902182701 | 80 | 169 | 4.0 | 6.0 | 0.00 | 0.00 | 0.12 | 82 | 1015.4 |
| 20260902182201 | 80 | 164 | 5.0 | 6.0 | 0.00 | 0.00 | 0.12 | 84 | 1015.3 |
| 20260902181703 | 80 | 177 | 6.0 | 7.0 | 0.00 | 0.00 | 0.12 | 83 | 1015.3 |
| 20260902181201 | 80 | 149 | 3.0 | 5.0 | 0.00 | 0.00 | 0.12 | 83 | 1015.4 |
| 20260902180703 | 80 | 170 | 4.0 | 6.0 | 0.00 | 0.00 | 0.12 | 84 | 1015.6 |
| 20260902180200 | 80 | 133 | 4.0 | 6.0 | 0.00 | 0.00 | 0.12 | 84 | 1015.8 |
| 20260902175701 | 79 | 165 | 5.0 | 6.0 | 0.00 | 0.00 | 0.12 | 85 | 1015.9 |
| 20260902175200 | 79 | 145 | 3.0 | 4.0 | 0.00 | 0.00 | 0.12 | 86 | 1016.1 |
| 20260902174700 | 79 | 167 | 4.0 | 7.0 | 0.00 | 0.00 | 0.12 | 86 | 1016.1 |
| 20260902174200 | 79 | 165 | 4.0 | 5.0 | 0.00 | 0.00 | 0.12 | 86 | 1016.1 |
| 20260902173701 | 79 | 167 | 4.0 | 6.0 | 0.00 | 0.00 | 0.12 | 87 | 1016.2 |
| 20260902173201 | 78 | 109 | 2.0 | 3.0 | 0.00 | 0.00 | 0.12 | 87 | 1016.2 |
| 20260902172701 | 78 | 121 | 2.0 | 4.0 | 0.00 | 0.00 | 0.12 | 88 | 1016.3 |
| 20260902172200 | 78 | 125 | 3.0 | 5.0 | 0.00 | 0.00 | 0.12 | 88 | 1016.2 |
| 20260902171701 | 78 | 135 | 3.0 | 5.0 | 0.00 | 0.00 | 0.12 | 88 | 1016.3 |
| 20260902171200 | 78 | 87 | 4.0 | 6.0 | 0.00 | 0.00 | 0.12 | 89 | 1016.4 |
| 20260902170700 | 78 | 130 | 5.0 | 6.0 | 0.00 | 0.00 | 0.12 | 89 | 1016.5 |
| 20260902170201 | 77 | 165 | 2.0 | 3.0 | 0.00 | 0.00 | 0.12 | 90 | 1016.4 |
| 20260902165700 | 77 | 115 | 4.0 | 5.0 | 0.00 | 0.00 | 0.12 | 90 | 1016.4 |
| 20260902165201 | 77 | 138 | 3.0 | 5.0 | 0.00 | 0.00 | 0.12 | 90 | 1016.4 |
| 20260902164701 | 77 | 166 | 4.0 | 5.0 | 0.00 | 0.00 | 0.12 | 90 | 1016.4 |
| 20260902164200 | 77 | 144 | 4.0 | 6.0 | 0.00 | 0.00 | 0.12 | 90 | 1016.5 |
| 20260902163701 | 77 | 161 | 6.0 | 9.0 | 0.00 | 0.00 | 0.12 | 90 | 1016.3 |
| 20260902163200 | 77 | 158 | 5.0 | 6.0 | 0.00 | 0.00 | 0.12 | 91 | 1016.3 |
| 20260902162700 | 77 | 164 | 4.0 | 5.0 | 0.00 | 0.00 | 0.12 | 91 | 1016.4 |
| 20260902162200 | 77 | 167 | 4.0 | 5.0 | 0.00 | 0.00 | 0.12 | 91 | 1016.5 |
| 20260902161703 | 77 | 168 | 4.0 | 6.0 | 0.00 | 0.00 | 0.12 | 91 | 1016.6 |
| 20260902161205 | 77 | 160 | 4.0 | 6.0 | 0.00 | 0.00 | 0.12 | 91 | 1016.7 |
| 20260902160701 | 77 | 106 | 5.0 | 6.0 | 0.00 | 0.00 | 0.12 | 91 | 1016.6 |
| 20260902160200 | 77 | 145 | 2.0 | 4.0 | 0.00 | 0.00 | 0.12 | 92 | 1016.6 |
| 20260902155700 | 77 | 169 | 4.0 | 5.0 | 0.00 | 0.00 | 0.11 | 92 | 1016.5 |
| 20260902155200 | 77 | 108 | 4.0 | 4.0 | 0.00 | 0.00 | 0.11 | 92 | 1016.4 |
| 20260902154701 | 77 | 135 | 3.0 | 4.0 | 0.00 | 0.00 | 0.11 | 93 | 1016.4 |
| 20260902154200 | 77 | 141 | 3.0 | 4.0 | 0.00 | 0.00 | 0.11 | 93 | 1016.4 |
| 20260902153701 | 77 | 137 | 2.0 | 3.0 | 0.00 | 0.00 | 0.11 | 93 | 1016.4 |
| 20260902153201 | 76 | 137 | 2.0 | 2.0 | 0.00 | 0.00 | 0.11 | 93 | 1016.3 |
| 20260902152701 | 76 | 132 | 2.0 | 2.0 | 0.01 | 0.00 | 0.11 | 93 | 1016.2 |
| 20260902152202 | 76 | 128 | 2.0 | 2.0 | 0.01 | 0.00 | 0.11 | 93 | 1016.3 |
| 20260902151700 | 76 | 120 | 3.0 | 4.0 | 0.02 | 0.00 | 0.12 | 93 | 1016.2 |
| 20260902151200 | 76 | 107 | 2.0 | 3.0 | 0.02 | 0.00 | 0.12 | 94 | 1016.2 |
| 20260902150701 | 76 | 115 | 2.0 | 4.0 | 0.02 | 0.00 | 0.12 | 94 | 1016.0 |
| 20260902145719 | 76 | 97 | 2.0 | 3.0 | 0.02 | 0.00 | 0.12 | 94 | 1015.9 |
| 20260902145200 | 76 | 116 | 2.0 | 3.0 | 0.02 | 0.00 | 0.12 | 93 | 1015.8 |
| 20260902144706 | 76 | 107 | 1.0 | 2.0 | 0.05 | 0.00 | 0.12 | 93 | 1015.8 |
| 20260902144200 | 76 | 112 | 2.0 | 4.0 | 0.05 | 0.00 | 0.12 | 93 | 1015.8 |
| 20260902143701 | 75 | 162 | 4.0 | 6.0 | 0.07 | 0.00 | 0.12 | 93 | 1015.8 |
| 20260902143201 | 75 | 159 | 4.0 | 6.0 | 0.11 | 0.00 | 0.11 | 93 | 1015.8 |
| 20260902142704 | 75 | 94 | 2.0 | 3.0 | 0.11 | 0.00 | 0.11 | 93 | 1015.8 |
| 20260902142200 | 75 | 132 | 2.0 | 3.0 | 0.11 | 0.00 | 0.11 | 93 | 1015.9 |
| 20260902141701 | 75 | 163 | 4.0 | 6.0 | 0.10 | 0.00 | 0.12 | 93 | 1016.0 |
| 20260902141201 | 75 | 157 | 2.0 | 6.0 | 0.10 | 0.00 | 0.11 | 93 | 1015.9 |
| 20260902140701 | 75 | 176 | 5.0 | 8.0 | 0.10 | 0.00 | 0.10 | 92 | 1015.9 |
| 20260902140200 | 75 | 144 | 5.0 | 6.0 | 0.10 | 0.00 | 0.10 | 92 | 1015.9 |
| 20260902135700 | 75 | 154 | 5.0 | 7.0 | 0.10 | 0.00 | 0.10 | 92 | 1015.9 |
| 20260902135202 | 76 | 157 | 3.0 | 4.0 | 0.07 | 0.00 | 0.10 | 91 | 1015.8 |
| 20260902134701 | 76 | 181 | 3.0 | 5.0 | 0.07 | 0.00 | 0.08 | 91 | 1015.8 |
| 20260902134200 | 76 | 179 | 7.0 | 10.0 | 0.06 | 0.00 | 0.07 | 90 | 1015.7 |
| 20260902133700 | 77 | 188 | 7.0 | 11.0 | 0.05 | 0.00 | 0.05 | 89 | 1015.7 |
| 20260902133201 | 79 | 186 | 4.0 | 6.0 | 0.00 | 0.00 | 0.05 | 87 | 1015.7 |
| 20260902132700 | 80 | 189 | 5.0 | 9.0 | 0.00 | 0.00 | 0.00 | 86 | 1015.6 |
| 20260902132201 | 80 | 138 | 3.0 | 5.0 | 0.00 | 0.00 | 0.00 | 88 | 1015.1 |
| 20260902131700 | 80 | 107 | 5.0 | 8.0 | 0.00 | 0.00 | 0.00 | 88 | 1014.9 |
| 20260902131200 | 80 | 101 | 6.0 | 9.0 | 0.00 | 0.00 | 0.00 | 89 | 1014.8 |
| 20260902130700 | 80 | 112 | 4.0 | 6.0 | 0.00 | 0.00 | 0.00 | 89 | 1014.8 |
| 20260902130201 | 79 | 106 | 6.0 | 9.0 | 0.00 | 0.00 | 0.00 | 90 | 1014.8 |
| 20260902125700 | 79 | 90 | 5.0 | 9.0 | 0.00 | 0.00 | 0.00 | 90 | 1014.8 |
| 20260902125202 | 79 | 70 | 9.0 | 12.0 | 0.00 | 0.00 | 0.00 | 90 | 1014.7 |
| 20260902124700 | 79 | 84 | 6.0 | 9.0 | 0.00 | 0.00 | 0.00 | 90 | 1014.8 |
| 20260902124200 | 79 | 97 | 7.0 | 9.0 | 0.00 | 0.00 | 0.00 | 90 | 1014.8 |
| 20260902123703 | 79 | 81 | 6.0 | 12.0 | 0.00 | 0.00 | 0.00 | 90 | 1014.8 |
| 20260902123205 | 79 | 74 | 5.0 | 8.0 | 0.00 | 0.00 | 0.00 | 90 | 1014.8 |
| 20260902122700 | 79 | 83 | 6.0 | 8.0 | 0.00 | 0.00 | 0.00 | 90 | 1014.8 |
| 20260902122200 | 79 | 86 | 6.0 | 9.0 | 0.00 | 0.00 | 0.00 | 90 | 1014.8 |
| 20260902121701 | 79 | 70 | 8.0 | 9.0 | 0.00 | 0.00 | 0.00 | 90 | 1014.7 |
| 20260902121201 | 79 | 92 | 5.0 | 5.0 | 0.00 | 0.00 | 0.00 | 90 | 1014.8 |
| 20260902120701 | 79 | 82 | 5.0 | 6.0 | 0.00 | 0.00 | 0.00 | 90 | 1014.7 |
| 20260902120203 | 79 | 101 | 4.0 | 5.0 | 0.00 | 0.00 | 0.00 | 90 | 1014.7 |
| 20260902115700 | 79 | 94 | 5.0 | 6.0 | 0.00 | 0.00 | 0.00 | 90 | 1014.7 |
| 20260902115200 | 79 | 89 | 6.0 | 7.0 | 0.00 | 0.00 | 0.00 | 90 | 1014.8 |
| 20260902114700 | 79 | 95 | 4.0 | 8.0 | 0.00 | 0.00 | 0.00 | 90 | 1014.8 |
| 20260902114200 | 79 | 86 | 6.0 | 8.0 | 0.00 | 0.00 | 0.00 | 90 | 1014.8 |
| 20260902113700 | 79 | 90 | 7.0 | 8.0 | 0.00 | 0.00 | 0.00 | 90 | 1014.7 |
| 20260902113200 | 79 | 105 | 4.0 | 5.0 | 0.00 | 0.00 | 0.00 | 90 | 1014.7 |
| 20260902112700 | 79 | 102 | 4.0 | 5.0 | 0.00 | 0.00 | 0.00 | 90 | 1014.7 |
| 20260902112201 | 79 | 82 | 6.0 | 9.0 | 0.00 | 0.00 | 0.00 | 90 | 1014.6 |
| 20260902111701 | 79 | 106 | 4.0 | 7.0 | 0.00 | 0.00 | 0.00 | 91 | 1014.6 |
| 20260902111200 | 79 | 94 | 5.0 | 7.0 | 0.00 | 0.00 | 0.00 | 91 | 1014.6 |
| 20260902110700 | 79 | 101 | 4.0 | 6.0 | 0.00 | 0.00 | 0.00 | 91 | 1014.5 |
| 20260902110200 | 79 | 94 | 4.0 | 5.0 | 0.00 | 0.00 | 0.00 | 91 | 1014.5 |
| 20260902105701 | 78 | 105 | 4.0 | 6.0 | 0.00 | 0.00 | 0.00 | 91 | 1014.5 |